[keps] orb12034.2l.amsat

Ray Hoad ray.hoad at mypbmail.com
Fri Feb 3 18:16:31 PST 2012


SB KEPS @ AMSAT  $ORB12034.N
2Line Orbital Elements 12034.AMSAT

HR AMSAT ORBITAL ELEMENTS FOR AMATEUR SATELLITES IN NASA FORMAT
FROM WA5QGD FORT WORTH,TX February 3, 2012
Send SUBSCRIBE KEPS/UNSUBSCRIBE KEPS to majordomo at amsat.org only
BID: ORB12034.N

DECODE 2-LINE ELSETS WITH THE FOLLOWING KEY:
1 AAAAAU 00  0  0 BBBBB.BBBBBBBB  .CCCCCCCC  00000-0  00000-0 0  DDDZ
2 AAAAA EEE.EEEE FFF.FFFF GGGGGGG HHH.HHHH III.IIII JJ.JJJJJJJJKKKKKZ
KEY: A-CATALOGNUM B-EPOCHTIME C-DECAY D-ELSETNUM E-INCLINATION F-RAAN
G-ECCENTRICITY H-ARGPERIGEE I-MNANOM J-MNMOTION K-ORBITNUM Z-CHECKSUM

TO ALL RADIO AMATEURS BT

AO-07
1 07530U 74089B   12034.59309480 -.00000027  00000-0  10000-3 0  2976
2 07530 101.3985 037.0263 0011764 185.8886 174.2043 12.53587365703183
FO-29
1 24278U 96046B   12034.37430729 -.00000048  00000-0 -12795-4 0  7689
2 24278 098.5753 152.7352 0350983 018.4819 342.8703 13.52976518763725
SO-33
1 25509U 98061B   12033.36417406  .00000193  00000-0  27701-4 0 01597
2 25509 031.4319 022.2499 0352394 094.9865 269.1074 14.28663275693213
RS-22
1 27939U 03042A   12034.69181737  .00000402  00000-0  85329-4 0   506
2 27939 097.8223 242.3227 0013152 336.2266 023.8332 14.63888690446205
VO-52
1 28650U 05017B   12033.68799199  .00001009  00000-0  13070-3 0 00165
2 28650 097.6152 071.1912 0027474 124.4088 235.9703 14.82653690364898
HO-68
1 36122U 09072B   12034.68224572 -.00000044  00000-0  00000 0 0  1662
2 36122 100.3817 096.6465 0007729 058.5953 301.5920 13.16292831102696
UO-11
1 14781U 84021B   12033.87042278  .00000478  00000-0  69658-4 0 07842
2 14781 097.9748 094.4685 0010037 109.5607 250.6690 14.80298586499913
AO-16
1 20439U 90005D   12034.86565325  .00000131  00000-0  64683-4 0  3880
2 20439 098.4142 342.1084 0010340 193.6766 166.4137 14.32014091150779
LO-19
1 20442U 90005G   12033.86124380  .00000118  00000-0  59540-4 0 03257
2 20442 098.3796 344.6230 0011406 188.8561 171.2427 14.32234808150811
AO-27
1 22825U 93061C   12034.85140241  .00000125  00000-0  66171-4 0   234
2 22825 098.5602 339.8595 0008004 320.1085 039.9503 14.29427050957288
IO-26
1 22826U 93061D   12034.87783715  .00000117  00000-0  62496-4 0  7713
2 22826 098.5545 340.2922 0008576 313.9435 046.1036 14.29697382957411
GO-32
1 25397U 98043D   12034.34935544  .00000100  00000-0  62185-4 0  6946
2 25397 098.3495 019.7993 0001148 004.4524 355.6669 14.23255811704842
NO-44
1 26931U 01043C   12033.68458682 -.00000055  00000-0  10757-4 0 09631
2 26931 067.0525 109.5636 0005932 279.0180 081.0241 14.29756454539879
SO-50
1 27607U 02058C   12033.38863524  .00000726  00000-0  13024-3 0 06798
2 27607 064.5596 347.9385 0085118 275.1093 084.0300 14.72198020489974
CO-55
1 27844U 03031E   12033.58772258  .00000211  00000-0  11738-3 0 03020
2 27844 098.7049 043.9347 0009022 254.1949 105.8226 14.20955751445636
CO-57
1 27848U 03031J   12033.56808960  .00000164  00000-0  96142-4 0 02515
2 27848 098.7136 043.1911 0008787 259.1460 100.8716 14.20716296445577
AO-51
1 28375U 04025K   12033.87961406  .00000153  00000-0  58386-4 0 01867
2 28375 098.1277 005.5870 0084513 090.4326 270.6560 14.40889961399288
CP3
1 31129U 07012N   12033.96919061  .00000683  00000-0  16550-3 0 00871
2 31129 097.8874 049.7052 0101021 183.1297 176.9267 14.52876653254347
CO-65
1 32785U 08021C   12033.67651587  .00001083  00000-0  14055-3 0 02195
2 32785 097.8196 097.8496 0015554 141.9531 218.2802 14.82658895203682
PRISM
1 33493U 09002B   12034.76898977  .00002165  00000-0  27155-3 0  3906
2 33493 098.1496 172.3709 0019316 016.0125 344.1695 14.83147984163826
SOHLA-1
1 33496U 09002E   12033.91372347  .00000266  00000-0  52732-4 0 06579
2 33496 098.0920 146.6638 0007587 109.1389 251.0640 14.69857695162374
TISAT-1
1 36799U 10035E   12033.87489852  .00001441  00000-0  19068-3 0 06627
2 36799 098.0760 109.2026 0013840 249.1287 110.8407 14.81479703084451
STUDSAT
1 36801U 10035G   12033.91679196  .00004227  00000-0  52595-3 0 03532
2 36801 098.0829 109.4588 0012287 236.0390 123.9624 14.83015954084463
FO-69
1 37227U 0        12033.44601156  .00000310  00000-0  51969-4 0 00941
2 37227 071.9693 251.4561 0018477 216.6687 143.3210 14.76913447016057
FO-70
1 37380U 0        12033.49675775  .00000288  00000-0  48983-4 0 00962
2 37380 071.9722 251.7328 0018865 214.0303 145.9646 14.76671424015957
NOAA-10
1 16969U 86073A   12034.51648816  .00000131  00000-0  70981-4 0  8032
2 16969 098.5968 065.8732 0011451 268.6564 091.3321 14.27525380320650
NOAA-11
1 19531U 88089A   12034.29513879  .00000188  00000-0  11981-3 0  8029
2 19531 098.7379 122.2661 0010327 248.8844 111.1244 14.14952164205430
NOAA-12
1 21263U 91032A   12034.56111869  .00000050  00000-0  40222-4 0  2910
2 21263 098.7393 056.7941 0012895 231.1805 128.8219 14.25475673 77371
MET-3/5
1 21655U 91056A   12034.53352314  .00000051  00000-0  10000-3 0  3271
2 21655 082.5546 247.3106 0012589 302.7861 057.2031 13.17037761984179
MET-2/21
1 22782U 93055A   12034.80106804 -.00000006  00000-0 -19037-4 0  3288
2 22782 082.5501 139.1377 0023032 165.9138 194.2679 13.83676939930586
OKEAN-4
1 23317U 94066A   12034.89046284  .00000837  00000-0  98305-4 0  7942
2 23317 082.5419 156.7235 0023194 075.8875 284.4916 14.83566645934890
NOAA-14
1 23455U 94089A   12034.52003107  .00000037  00000-0  42510-4 0  7744
2 23455 098.8349 119.6833 0009411 348.1844 011.9107 14.13874470881768
NOAA-15
1 25338U 98030A   12034.45914932 -.00000028  00000-0  66402-5 0  1264
2 25338 098.6790 022.7219 0011143 136.8541 223.3515 14.25025550713666
RESURS
1 25394U 98043A   12033.95765585  .00000034  00000-0  32185-4 0 00267
2 25394 098.3096 029.3819 0000743 316.0481 044.0641 14.24271778705159
FENGYUN1
1 25730U 99025A   12033.90385230  .00001296  00000-0  76868-3 0 05432
2 25730 098.8362 355.3329 0021391 030.5000 329.7410 14.09204435655553
OKEAN-0
1 25860U 99039A   12033.91386708  .00000454  00000-0  76451-4 0 05538
2 25860 097.9173 359.4790 0001180 033.8735 326.2549 14.74074039674642
NOAA-16
1 26536U 00055A   12034.47095006 -.00000152  00000-0 -56906-4 0  6103
2 26536 099.1141 074.4014 0011388 103.0432 257.2013 14.12700301586012
NOAA-17
1 27453U 02032A   12034.29390664 -.00000055  00000-0 -61502-5 0  5837
2 27453 098.3530 068.0535 0011577 187.8989 172.2010 14.24388661499557
NOAA-18
1 28654U 05018A   12034.32419292 -.00000076  00000-0 -16942-4 0   601
2 28654 099.0288 351.4167 0014205 171.1731 188.9700 14.11598812345536
NOAA-19
1 33591U 09005A   12034.30188475  .00000311  00000-0  19638-3 0  2483
2 33591 098.8520 335.8525 0014757 044.7515 315.4846 14.11290002153983
HUBBLE
1 20580U 90037B   12033.80363283  .00001564  00000-0  10354-3 0  9369
2 20580 028.4724 309.2623 0003558 058.6018 301.4443 15.02156561994359
ISS
1 25544U 98067A   12034.86863426 -.00001965  00000-0 -18124-4 0  9424
2 25544 051.6423 075.8121 0020339 002.5479 345.5829 15.58658818757067
CO-58
1 28895U 05043F   12033.64256716  .00000361  00000-0  83601-4 0 00904
2 28895 097.9355 265.7268 0016932 214.5420 145.4665 14.60468303333877
FALCON
1 30776U 07006E   12033.97544816  .00003517  00000-0  23574-3 0 02868
2 30776 035.4337 022.0578 0003418 277.9002 082.1323 15.06535208269840
MAST
1 31126U 07012K   12033.93787976  .00000320  00000-0  81602-4 0 03808
2 31126 097.8810 052.9291 0094274 171.6016 188.6795 14.54023074254616
CAPE1
1 31130U 07012P   12033.92706829  .00000389  00000-0  98947-4 0 03883
2 31130 097.8890 049.3986 0101811 183.8149 176.2288 14.52755723254136
COMPASS
1 32787U 08021E   12033.65189263  .00001184  00000-0  15020-3 0 02142
2 32787 097.8195 097.9271 0016162 141.2021 219.0352 14.83468310203713
AAUSAT2
1 32788U 08021F   12033.91859911  .00001254  00000-0  15760-3 0 02077
2 32788 097.8205 098.5001 0016219 140.2606 219.9785 14.83744502203770
DO-64
1 32789U 08021G   12033.88248916  .00003025  00000-0  36122-3 0 02210
2 32789 097.8302 100.0206 0015902 138.7683 221.4734 14.84872170203798
CO-66
1 32791U 08021J   12034.80716732  .00001355  00000-0  17285-3 0  2079
2 32791 097.8205 098.8971 0016484 136.4443 223.8070 14.82984967203820
RS-30
1 32953U 08025A   12034.87439243  .00000010  00000-0  00000 0 0  4891
2 32953 082.5017 018.6546 0017457 240.2754 119.6590 12.43020594167875
TACSAT-3
1 35001U 09028A   12033.80813342  .00076743  00000-0  57634-3 0 08608
2 35001 040.4468 195.8471 0005692 013.5828 346.5199 15.71534632153037
PHARMSAT
1 35002U 09028B   12034.58323606  .00041458  00000-0  42664-3 0  7852
2 35002 040.4653 194.3474 0005185 160.7121 199.3899 15.64020865153120
METEOR-M
1 35865U 09049A   12034.74211401 -.00000013  00000-0  13881-4 0  1227
2 35865 098.6743 091.4739 0003296 081.9944 278.1603 14.21854911123496
RS-38
1 35869U 09049E   12034.71217152  .00000012  00000-0  25016-4 0  1183
2 35869 098.6708 091.4603 0005429 082.7551 277.4235 14.22052782123506
ARISSAT1
1 37772U 98067CK  12004.04884568  .13494171  12416-4  77857-3 0  4794
2 37772 051.6129 213.1240 0007478 255.9283 104.1611 16.41716225 24077
JUGNU
1 37839U 11058B   12033.49104480  .00000620  00000-0  19019-3 0 00806
2 37839 019.9606 100.2643 0018614 166.8909 193.1923 14.12021540016047
SRMSAT
1 37841U 11058D   12033.50275586  .00000264  00000-0  00000-0 0 00819
2 37841 019.9729 102.4062 0012250 143.8899 216.2334 14.10112631016029
RAX-2
1 37853U 11061D   12034.86954635  .00005922  00000-0  48216-3 0   871
2 37853 101.7118 014.0423 0251507 013.4055 347.3665 14.78700145 14533
AUBIESAT
1 37854U 11061E   12034.85490349  .00007030  00000-0  56310-3 0   896
2 37854 101.7132 014.1048 0252526 013.0752 347.6847 14.78974832 14526
HRBE
1 37855U 11061F   12033.97848028  .00006436  00000-0  51605-3 0 01072
2 37855 101.7164 012.8265 0253328 015.5531 345.3267 14.78884214014391
RS-39
1 38051U 11062C   12034.62731332  .00007636  00000-0  34270-3 0   299
2 38051 051.6487 079.8964 0011251 281.2566 189.9078 15.22076105  1465
/EX


More information about the Keps mailing list